Regional Weather Roundup
Issued by NWS Bismarck, ND

Home | Current Version | Previous Version | Text Only | Print | Product List | Glossary On
Versions: 1 2 3 4 5 6 7 8 9 10 11 12 13 14 15 16 17 18 19 20 21 22 23 24 25 26 27 28 29 30 31 32 33 34 35 36 37 38 39 40 41 42 43 44 45 46 47 48 49 50
000
ASUS43 KBIS 190810
RWRBIS

NWR BROADCAST TEXT
NATIONAL WEATHER SERVICE BISMARCK ND
300 AM CDT SAT APR 19 2014

NOTE: "FAIR" INDICATES FEW OR NO CLOUDS BELOW 12,000 FEET WITH NO
SIGNIFICANT WEATHER AND/OR OBSTRUCTIONS TO VISIBILITY.


CITY           SKY/WX    TMP DP  RH WIND       PRES   REMARKS
WILLISTON      PTCLDY    39  36  89 SW10      29.72S
MINOT          CLOUDY    39  36  89 W5        29.68F FOG
MINOT AFB      CLOUDY    37  37  99 CALM      29.67F
BISMARCK       PTCLDY    47  39  74 NW20G29   29.75R
DICKINSON      PTCLDY    41  33  73 W18G25    29.75R
GARRISON         N/A     41  37  86 NW13      29.69F
HETTINGER ARPT MOCLDY    38  33  82 W9        29.83R
JAMESTOWN      MOCLDY    50  41  71 S12       29.67R
CARRINGTON     PTSUNNY   41  39  93 SE13      29.66S
CROSBY         FAIR      37  37 100 SW12      29.67F
HARVEY         FAIR      34  34 100 CALM      29.68R
HAZEN          FAIR      41  37  87 W9        29.74F
LINTON         FAIR      46  41  81 W17G24    29.79R
MANDAN         FAIR      45  37  76 NW23G33   29.73R
OAKES          FAIR      54  41  62 S16G23    29.68R
RUGBY          FAIR      32  32 100 CALM      29.68R
STANLEY        FAIR      36  36 100 W9        29.68F
TIOGA          FAIR      39  39 100 W15       29.72S
WATFORD CITY   FAIR      36  36 100 SW9       29.73R
$$

CITY           SKY/WX    TMP DP  RH WIND       PRES   REMARKS
GRAND FORKS    CLOUDY    45  31  58 SE22      29.75F
GRAND FORKS AF CLOUDY    44  31  59 S16G24    29.74F
DEVILS LAKE    PTCLDY    39  30  70 SE17      29.66F
FARGO          CLOUDY    51  33  50 SE30G53   29.72F
CANDO          FAIR      36  32  87 E7        29.69F
CAVALIER       FAIR      37  32  81 SE10G20   29.77F
GRAFTON        FAIR      41  32  70 SE16      29.77F
GWINNER        SUNNY     46  36  66 SE26G35   29.71F
LANGDON        FAIR      37  32  81 SE18      29.70F
ROLLA          CLOUDY    34  32  93 SE7       29.69F
WALHALLA       FAIR      37  36  93 SE12G18   29.75F
$$

CITY           SKY/WX    TMP DP  RH WIND       PRES   REMARKS
ABERDEEN       CLOUDY    56  42  59 S25G35    29.69S
MOBRIDGE       MOCLDY    49  40  71 NW25G37   29.75R
BUFFALO          N/A     41  31  67 W18       29.79R
RAPID CITY     CLOUDY    47  35  63 N20G28    29.88R
GLASGOW        CLOUDY    39  31  72 W12       29.74F
SIDNEY         CLEAR     39  34  81 SW13      29.76F
WOLF POINT     MOCLDY    37  31  78 W12       29.75F
GLENDIVE       CLEAR     36  28  75 SW10      29.81F
MILES CITY     CLEAR     37  31  78 SW5       29.87R
BAKER          CLEAR     37  31  78 W10       29.84S
$$

CITY           SKY/WX    TMP DP  RH WIND       PRES   REMARKS
BILLINGS       PTCLDY    41  13  31 W7        29.89R
GREAT FALLS    CLEAR     37  20  50 SW16      29.90S
REGINA         CLOUDY    41  37  87 W16       29.57S
ESTEVAN        PTCLDY    37  37 100 SW8       29.65F
$$




USA.gov is the U.S. government's official web portal to all federal, state and local government web resources and services.